| time (UTC) | temp C | wind direction | speed KPH | gust KPH | rain 1hr cm | rain 24hr cm | rain mn cm | humidity % | barometer mb |
| 20260906075544 | 25 | 243 | 6.4 | 11.3 | 0.00 | 0.00 | 0.00 | 71 | 1022.9 |
| 20260906074542 | 25 | 295 | 3.2 | 9.7 | 0.00 | 0.00 | 0.00 | 72 | 1023.0 |
| 20260906073601 | 24 | 248 | 3.2 | 11.3 | 0.00 | 0.00 | 0.00 | 76 | 1023.0 |
| 20260906072540 | 23 | 188 | 4.8 | 12.9 | 0.00 | 0.00 | 0.00 | 79 | 1022.9 |
| 20260906071559 | 23 | 191 | 6.4 | 11.3 | 0.00 | 0.00 | 0.00 | 80 | 1022.9 |
| 20260906070537 | 23 | 181 | 6.4 | 16.1 | 0.00 | 0.00 | 0.00 | 80 | 1022.9 |
| 20260906065557 | 23 | 203 | 6.4 | 14.5 | 0.00 | 0.00 | 0.00 | 80 | 1022.8 |
| 20260906064536 | 23 | 221 | 11.3 | 14.5 | 0.00 | 0.00 | 0.00 | 75 | 1022.8 |
| 20260906063534 | 22 | 178 | 8.0 | 12.9 | 0.00 | 0.00 | 0.00 | 77 | 1022.7 |
| 20260906062553 | 22 | 176 | 4.8 | 14.5 | 0.00 | 0.00 | 0.00 | 78 | 1022.8 |
| 20260906061532 | 22 | 187 | 6.4 | 12.9 | 0.00 | 0.00 | 0.00 | 82 | 1022.7 |
| 20260906060530 | 21 | 183 | 4.8 | 8.0 | 0.00 | 0.00 | 0.00 | 84 | 1022.7 |
| 20260906055529 | 21 | 176 | 4.8 | 8.0 | 0.00 | 0.00 | 0.00 | 86 | 1022.7 |
| 20260906054528 | 21 | 177 | 6.4 | 9.7 | 0.00 | 0.00 | 0.00 | 86 | 1022.5 |
| 20260906053527 | 20 | 170 | 4.8 | 9.7 | 0.00 | 0.00 | 0.00 | 88 | 1022.5 |
| 20260906052525 | 20 | 169 | 3.2 | 6.4 | 0.00 | 0.00 | 0.00 | 90 | 1022.6 |
| 20260906051545 | 20 | 173 | 4.8 | 9.7 | 0.00 | 0.00 | 0.00 | 92 | 1022.4 |
| 20260906050524 | 20 | 174 | 3.2 | 8.0 | 0.00 | 0.00 | 0.00 | 92 | 1022.5 |
| 20260906045522 | 20 | 175 | 3.2 | 8.0 | 0.00 | 0.00 | 0.00 | 91 | 1022.4 |
| 20260906044522 | 20 | 165 | 3.2 | 8.0 | 0.00 | 0.00 | 0.00 | 90 | 1022.3 |
| 20260906043520 | 20 | 165 | 3.2 | 9.7 | 0.00 | 0.00 | 0.00 | 88 | 1022.3 |
| 20260906042519 | 21 | 163 | 1.6 | 6.4 | 0.00 | 0.00 | 0.00 | 87 | 1022.2 |
| 20260906041518 | 20 | 128 | 1.6 | 3.2 | 0.00 | 0.00 | 0.00 | 89 | 1022.2 |
| 20260906040517 | 20 | 152 | 1.6 | 4.8 | 0.00 | 0.00 | 0.00 | 90 | 1022.1 |
| 20260906035515 | 20 | 163 | 3.2 | 8.0 | 0.00 | 0.00 | 0.00 | 92 | 1022.1 |
| 20260906034614 | 20 | 151 | 1.6 | 6.4 | 0.00 | 0.00 | 0.00 | 92 | 1022.1 |
| 20260906033614 | 20 | 157 | 3.2 | 6.4 | 0.00 | 0.00 | 0.00 | 92 | 1022.0 |
| 20260906032632 | 20 | 162 | 3.2 | 6.4 | 0.00 | 0.00 | 0.00 | 92 | 1022.0 |
| 20260906031611 | 20 | 172 | 3.2 | 6.4 | 0.00 | 0.00 | 0.00 | 92 | 1022.1 |
| 20260906030610 | 20 | 169 | 3.2 | 9.7 | 0.00 | 0.00 | 0.00 | 92 | 1022.0 |
| 20260906025609 | 20 | 183 | 4.8 | 8.0 | 0.00 | 0.00 | 0.00 | 91 | 1022.0 |
| 20260906024608 | 20 | 171 | 4.8 | 6.4 | 0.00 | 0.00 | 0.00 | 91 | 1022.2 |
| 20260906023607 | 20 | 172 | 4.8 | 6.4 | 0.00 | 0.00 | 0.00 | 91 | 1022.2 |
| 20260906022625 | 21 | 177 | 4.8 | 8.0 | 0.00 | 0.00 | 0.00 | 90 | 1022.2 |
| 20260906021604 | 21 | 156 | 3.2 | 6.4 | 0.00 | 0.00 | 0.00 | 90 | 1022.0 |
| 20260906020603 | 20 | 156 | 3.2 | 6.4 | 0.00 | 0.00 | 0.00 | 90 | 1022.0 |
| 20260906015602 | 20 | 168 | 3.2 | 9.7 | 0.00 | 0.00 | 0.00 | 90 | 1022.2 |
| 20260906014621 | 21 | 169 | 4.8 | 9.7 | 0.00 | 0.00 | 0.00 | 89 | 1022.2 |
| 20260906013600 | 21 | 172 | 4.8 | 8.0 | 0.00 | 0.00 | 0.00 | 87 | 1022.1 |
| 20260906012558 | 21 | 167 | 3.2 | 6.4 | 0.00 | 0.00 | 0.00 | 86 | 1022.2 |
| 20260906011637 | 21 | 127 | 3.2 | 4.8 | 0.00 | 0.00 | 0.00 | 85 | 1022.3 |
| 20260906010556 | 21 | 169 | 3.2 | 8.0 | 0.00 | 0.00 | 0.00 | 84 | 1022.2 |
| 20260906005554 | 22 | 174 | 3.2 | 6.4 | 0.00 | 0.00 | 0.00 | 84 | 1022.3 |
| 20260906004553 | 22 | 172 | 3.2 | 6.4 | 0.00 | 0.00 | 0.00 | 84 | 1022.3 |
| 20260906003552 | 22 | 176 | 4.8 | 8.0 | 0.00 | 0.00 | 0.00 | 84 | 1022.2 |
| 20260906002551 | 22 | 161 | 3.2 | 6.4 | 0.00 | 0.00 | 0.00 | 84 | 1022.1 |
| 20260906001550 | 22 | 174 | 3.2 | 6.4 | 0.00 | 0.00 | 0.00 | 84 | 1022.3 |
| 20260906000549 | 22 | 163 | 4.8 | 8.0 | 0.00 | 0.00 | 0.00 | 84 | 1022.3 |
| 20260905235547 | 22 | 168 | 4.8 | 8.0 | 0.00 | 0.00 | 0.00 | 84 | 1022.4 |
| 20260905234547 | 22 | 174 | 4.8 | 8.0 | 0.00 | 0.00 | 0.00 | 84 | 1022.5 |
| 20260905233545 | 22 | 163 | 3.2 | 8.0 | 0.00 | 0.00 | 0.00 | 85 | 1022.5 |
| 20260905232544 | 22 | 158 | 3.2 | 9.7 | 0.00 | 0.00 | 0.00 | 86 | 1022.4 |
| 20260905231543 | 22 | 143 | 1.6 | 6.4 | 0.00 | 0.00 | 0.00 | 88 | 1022.5 |
| 20260905230541 | 22 | 159 | 3.2 | 8.0 | 0.00 | 0.00 | 0.00 | 88 | 1022.4 |
| 20260905225540 | 22 | 173 | 4.8 | 6.4 | 0.00 | 0.00 | 0.00 | 87 | 1022.5 |
| 20260905224538 | 23 | 168 | 4.8 | 6.4 | 0.00 | 0.00 | 0.00 | 85 | 1022.4 |
| 20260905223538 | 23 | 132 | 1.6 | 4.8 | 0.00 | 0.00 | 0.00 | 85 | 1022.3 |
| 20260905222536 | 23 | 62 | 1.6 | 3.2 | 0.00 | 0.00 | 0.00 | 85 | 1022.4 |
| 20260905221535 | 23 | 28 | 0.0 | 3.2 | 0.00 | 0.00 | 0.00 | 85 | 1022.5 |
| 20260905220534 | 23 | 141 | 0.0 | 3.2 | 0.00 | 0.00 | 0.00 | 85 | 1022.5 |
| 20260905215612 | 23 | 179 | 1.6 | 4.8 | 0.00 | 0.00 | 0.00 | 84 | 1022.3 |
| 20260905214531 | 23 | 63 | 0.0 | 3.2 | 0.00 | 0.00 | 0.00 | 84 | 1022.4 |
| 20260905213550 | 23 | 69 | 1.6 | 4.8 | 0.00 | 0.00 | 0.00 | 84 | 1022.3 |
| 20260905212528 | 23 | 11 | 0.0 | 3.2 | 0.00 | 0.00 | 0.00 | 83 | 1022.2 |
| 20260905211547 | 23 | 0.0 | 3.2 | 0.00 | 0.00 | 0.00 | 83 | 1022.1 | |
| 20260905210527 | 23 | 9 | 1.6 | 3.2 | 0.00 | 0.00 | 0.00 | 82 | 1022.2 |
| 20260905205525 | 24 | 335 | 3.2 | 4.8 | 0.00 | 0.00 | 0.00 | 82 | 1022.2 |
| 20260905204524 | 24 | 333 | 1.6 | 6.4 | 0.00 | 0.00 | 0.00 | 82 | 1022.1 |
| 20260905203523 | 24 | 328 | 1.6 | 4.8 | 0.00 | 0.00 | 0.00 | 82 | 1022.1 |
| 20260905202542 | 25 | 336 | 4.8 | 6.4 | 0.00 | 0.00 | 0.00 | 82 | 1022.2 |
| 20260905201520 | 25 | 358 | 3.2 | 6.4 | 0.00 | 0.00 | 0.00 | 82 | 1022.0 |
| 20260905200519 | 25 | 349 | 3.2 | 8.0 | 0.00 | 0.00 | 0.00 | 82 | 1022.0 |
| 20260905195518 | 25 | 349 | 6.4 | 8.0 | 0.00 | 0.00 | 0.00 | 81 | 1021.9 |
| 20260905194517 | 25 | 4 | 4.8 | 6.4 | 0.00 | 0.00 | 0.00 | 81 | 1022.1 |
| 20260905193516 | 25 | 14 | 4.8 | 6.4 | 0.00 | 0.00 | 0.00 | 80 | 1022.0 |
| 20260905192615 | 25 | 19 | 4.8 | 8.0 | 0.00 | 0.00 | 0.00 | 80 | 1021.8 |
| 20260905191633 | 26 | 10 | 4.8 | 9.7 | 0.00 | 0.00 | 0.00 | 79 | 1021.8 |
| 20260905190612 | 26 | 18 | 6.4 | 11.3 | 0.00 | 0.00 | 0.00 | 77 | 1021.6 |
| 20260905185611 | 26 | 37 | 8.0 | 14.5 | 0.00 | 0.00 | 0.00 | 75 | 1021.5 |
| 20260905184609 | 26 | 32 | 11.3 | 16.1 | 0.00 | 0.00 | 0.00 | 74 | 1021.4 |
| 20260905183609 | 26 | 36 | 11.3 | 16.1 | 0.00 | 0.00 | 0.00 | 71 | 1021.3 |
| 20260905182607 | 27 | 47 | 9.7 | 16.1 | 0.00 | 0.00 | 0.00 | 70 | 1021.1 |
| 20260905181606 | 27 | 40 | 9.7 | 19.3 | 0.00 | 0.00 | 0.00 | 66 | 1021.1 |
| 20260905180605 | 27 | 50 | 11.3 | 19.3 | 0.00 | 0.00 | 0.00 | 63 | 1020.9 |
| 20260905175603 | 28 | 40 | 11.3 | 17.7 | 0.00 | 0.00 | 0.00 | 57 | 1020.8 |
| 20260905174602 | 28 | 45 | 9.7 | 19.3 | 0.00 | 0.00 | 0.00 | 55 | 1020.6 |
| 20260905173600 | 28 | 37 | 9.7 | 22.5 | 0.00 | 0.00 | 0.00 | 54 | 1020.7 |
| 20260905172558 | 29 | 27 | 12.9 | 24.1 | 0.00 | 0.00 | 0.00 | 51 | 1020.4 |
| 20260905171601 | 30 | 28 | 12.9 | 22.5 | 0.00 | 0.00 | 0.00 | 49 | 1020.4 |
| 20260905170555 | 30 | 33 | 11.3 | 22.5 | 0.00 | 0.00 | 0.00 | 47 | 1020.5 |
| 20260905165554 | 30 | 27 | 14.5 | 24.1 | 0.00 | 0.00 | 0.00 | 47 | 1020.2 |
| 20260905164553 | 31 | 21 | 19.3 | 25.7 | 0.00 | 0.00 | 0.00 | 45 | 1020.2 |
| 20260905163612 | 31 | 29 | 14.5 | 20.9 | 0.00 | 0.00 | 0.00 | 41 | 1020.1 |
| 20260905162550 | 31 | 40 | 11.3 | 22.5 | 0.00 | 0.00 | 0.00 | 40 | 1020.3 |
| 20260905161549 | 32 | 29 | 11.3 | 20.9 | 0.00 | 0.00 | 0.00 | 39 | 1020.3 |
| 20260905160547 | 32 | 26 | 12.9 | 30.6 | 0.00 | 0.00 | 0.00 | 39 | 1020.2 |
| 20260905155546 | 32 | 31 | 11.3 | 20.9 | 0.00 | 0.00 | 0.00 | 40 | 1020.1 |
| 20260905154545 | 32 | 27 | 14.5 | 29.0 | 0.00 | 0.00 | 0.00 | 40 | 1020.1 |
| 20260905153544 | 32 | 28 | 24.1 | 35.4 | 0.00 | 0.00 | 0.00 | 40 | 1020.0 |
| 20260905152543 | 33 | 25 | 17.7 | 27.4 | 0.00 | 0.00 | 0.00 | 40 | 1019.9 |
| 20260905151542 | 33 | 43 | 14.5 | 24.1 | 0.00 | 0.00 | 0.00 | 38 | 1019.9 |
| 20260905150542 | 33 | 29 | 17.7 | 29.0 | 0.00 | 0.00 | 0.00 | 40 | 1020.1 |
| 20260905145539 | 33 | 26 | 17.7 | 30.6 | 0.00 | 0.00 | 0.00 | 39 | 1020.1 |
| 20260905144538 | 33 | 33 | 17.7 | 29.0 | 0.00 | 0.00 | 0.00 | 36 | 1020.1 |
| 20260905143537 | 33 | 34 | 14.5 | 30.6 | 0.00 | 0.00 | 0.00 | 37 | 1019.9 |
| 20260905142536 | 33 | 40 | 16.1 | 27.4 | 0.00 | 0.00 | 0.00 | 36 | 1020.1 |
| 20260905141535 | 33 | 25 | 16.1 | 29.0 | 0.00 | 0.00 | 0.00 | 36 | 1020.2 |
| 20260905140534 | 33 | 15 | 17.7 | 41.8 | 0.00 | 0.00 | 0.00 | 35 | 1020.0 |
| 20260905135532 | 33 | 17 | 16.1 | 33.8 | 0.00 | 0.00 | 0.00 | 35 | 1020.3 |
| 20260905134532 | 34 | 38 | 14.5 | 37.0 | 0.00 | 0.00 | 0.00 | 32 | 1020.3 |
| 20260905133530 | 34 | 18 | 12.9 | 27.4 | 0.00 | 0.00 | 0.00 | 32 | 1020.2 |
| 20260905132529 | 34 | 29 | 14.5 | 32.2 | 0.00 | 0.00 | 0.00 | 30 | 1020.2 |
| 20260905131548 | 35 | 26 | 17.7 | 30.6 | 0.00 | 0.00 | 0.00 | 28 | 1020.3 |
| 20260905130547 | 35 | 31 | 14.5 | 24.1 | 0.00 | 0.00 | 0.00 | 28 | 1020.5 |
| 20260905125526 | 34 | 8 | 16.1 | 27.4 | 0.00 | 0.00 | 0.00 | 29 | 1020.5 |
| 20260905124525 | 34 | 347 | 12.9 | 24.1 | 0.00 | 0.00 | 0.00 | 31 | 1020.5 |
| 20260905123523 | 34 | 27 | 11.3 | 24.1 | 0.00 | 0.00 | 0.00 | 31 | 1020.6 |
| 20260905122542 | 34 | 30 | 14.5 | 25.7 | 0.00 | 0.00 | 0.00 | 30 | 1020.8 |
| 20260905121520 | 33 | 14 | 12.9 | 29.0 | 0.00 | 0.00 | 0.00 | 29 | 1020.8 |
| 20260905120519 | 33 | 354 | 11.3 | 20.9 | 0.00 | 0.00 | 0.00 | 30 | 1020.7 |
| 20260905115538 | 33 | 329 | 12.9 | 19.3 | 0.00 | 0.00 | 0.00 | 27 | 1020.8 |
| 20260905114517 | 33 | 319 | 9.7 | 24.1 | 0.00 | 0.00 | 0.00 | 25 | 1021.0 |
| 20260905113516 | 33 | 339 | 9.7 | 20.9 | 0.00 | 0.00 | 0.00 | 26 | 1021.2 |
| 20260905112615 | 33 | 341 | 11.3 | 17.7 | 0.00 | 0.00 | 0.00 | 27 | 1021.2 |
| 20260905111613 | 33 | 347 | 11.3 | 17.7 | 0.00 | 0.00 | 0.00 | 25 | 1021.2 |
| 20260905110612 | 33 | 23 | 14.5 | 30.6 | 0.00 | 0.00 | 0.00 | 26 | 1021.2 |
| 20260905105611 | 32 | 5 | 9.7 | 17.7 | 0.00 | 0.00 | 0.00 | 28 | 1021.2 |
| 20260905104630 | 32 | 28 | 12.9 | 20.9 | 0.00 | 0.00 | 0.00 | 29 | 1021.2 |
| 20260905103609 | 32 | 9 | 11.3 | 22.5 | 0.00 | 0.00 | 0.00 | 28 | 1021.4 |
| 20260905102607 | 32 | 11 | 14.5 | 25.7 | 0.00 | 0.00 | 0.00 | 30 | 1021.3 |
| 20260905101606 | 31 | 358 | 8.0 | 16.1 | 0.00 | 0.00 | 0.00 | 33 | 1021.4 |
| 20260905100604 | 31 | 354 | 9.7 | 16.1 | 0.00 | 0.00 | 0.00 | 34 | 1021.5 |
| 20260905095603 | 31 | 18 | 11.3 | 17.7 | 0.00 | 0.00 | 0.00 | 36 | 1021.6 |
| 20260905094602 | 31 | 16 | 9.7 | 17.7 | 0.00 | 0.00 | 0.00 | 35 | 1021.7 |
| 20260905093601 | 31 | 349 | 9.7 | 19.3 | 0.00 | 0.00 | 0.00 | 36 | 1021.8 |
| 20260905092600 | 30 | 356 | 6.4 | 16.1 | 0.00 | 0.00 | 0.00 | 36 | 1021.8 |
| 20260905091639 | 29 | 337 | 6.4 | 14.5 | 0.00 | 0.00 | 0.00 | 40 | 1021.9 |
| 20260905090557 | 29 | 18 | 6.4 | 11.3 | 0.00 | 0.00 | 0.00 | 41 | 1021.8 |
| 20260905085556 | 28 | 7 | 6.4 | 9.7 | 0.00 | 0.00 | 0.00 | 42 | 1021.7 |
| 20260905084555 | 28 | 4 | 6.4 | 14.5 | 0.00 | 0.00 | 0.00 | 43 | 1021.6 |
| 20260905083634 | 29 | 6 | 4.8 | 11.3 | 0.00 | 0.00 | 0.00 | 42 | 1021.8 |
| 20260905082553 | 28 | 321 | 4.8 | 8.0 | 0.00 | 0.00 | 0.00 | 43 | 1021.7 |
| 20260905081632 | 27 | 268 | 1.6 | 6.4 | 0.00 | 0.00 | 0.00 | 46 | 1021.7 |
| 20260905080551 | 25 | 56 | 3.2 | 8.0 | 0.00 | 0.00 | 0.00 | 50 | 1021.6 |